Location: El Peñón
(10.3719°N, 67.3319°W)
Time: 04:20:14
(UTC+00:00)

Cosmos 1536 - Pass Details

Date: 13 June 2024
Orbit: 514 x 539 km, 82.6° (Epoch: 21 July)

Event Time Altitude Azimuth Distance (km) Brightness Sun altitude
Rises 23:05:21 0° 13° (NNE) 2,691 6.5 -4.0°
Reaches altitude 10° 23:07:44 10° 25° (NNE) 1,799 5.5 -4.5°
Maximum altitude 23:11:08 28° 85° (E) 1,038 3.8 -5.3°
Drops below altitude 10° 23:14:33 10° 144° (SE) 1,794 4.9 -6.0°
Enters shadow 23:16:39 - 155° (SSE) 2,583 5.8 -6.5°
